OneWeb SL0369

operational
NORAD ID: 49295 Int'l Des: 2021-090 Owner: ONEWEBN Country: UK Constellation: oneweb
LEOCIRCULARPOLARONEWEB_TYPE

OneWeb SL0369について

説明を読み込み中...

リアルタイム位置

3D地球を読み込み中...

次回通過

高度履歴

Altitude vs Time

uPlot chart will show altitude changes over time

軌道要素

1 49295U 21090S 25352.20728935 -.00000033 00000-0 -11451-3 0 9997
2 49295 87.9200 340.9882 0001878 85.1858 274.9490 13.19727109202548
Epoch: Dec 18, 2025 • Age: 9 hours

現在のステータス

高度 1213.1 km
速度 7.25 km/s
衛星直下点 -68.86°S, 123.79°W
打ち上げ日 Oct 14, 2021
運用期間 4.1 years
タイプ internet

技術仕様

分類 Payload
質量 148.00 kg
乾燥質量 140.00 kg
総質量 148.00 kg
長さ 1.30 m
直径 1.00 m
スパン 5.00 m
形状 Trapezoid+2 pan
製造者 ONEWUS
バスタイプ ARROW
フェーズステータス In Orbit
所有者/国 ONEWEBN/UK

大規模コンステレーション

Loading constellations...